Tracking 19827 objects as of 22-Aug-2019
HD Live streaming from Space Station
objects crossing your sky now

BREEZE-M DEB (TANK)

Track BREEZE-M DEB (TANK) now!


NORAD ID: 32488
Int'l Code: 2008-006B
Perigee: 847.6 km
Apogee: 36,200.0 km
Inclination: 48.6 °
Period: 651.5 minutes
Semi major axis: 24894 km
RCS: 5.2229 m2 (large)
Launch date: February 11, 2008
Source: Commonwealth of Independent States (former USSR) (CIS)
Launch site: TYURATAM MISSILE AND SPACE COMPLEX (TTMTR)

Note: This is SATELLITE DEBRIS
aabbcc
Your satellite tracking list
Your tracking list is empty




NASA's NSSDC Master Catalog

Two Line Element Set (TLE):
1 32488U 08006B   19233.47280171 -.00000125 +00000-0 -48554-2 0  9995
2 32488 048.6353 055.9850 7100377 187.4691 154.6539 02.21024271093050
Source of the keplerian elements: AFSPC